Regional Weather Roundup
Issued by NWS

Home | Current Version | Previous Version | Graphics & Text | Print | Product List | Glossary On
Versions: 1 2 3 4 5 6 7 8 9 10 11 12 13 14 15 16 17 18 19 20 21 22 23 24 25 26 27 28 29 30 31 32 33 34 35 36 37 38 39 40 41 42 43 44 45 46 47 48 49 50
000
ASUS43 KIND 291809
RWRIN

WEATHER ROUNDUP FOR INDIANA
NATIONAL WEATHER SERVICE INDIANAPOLIS IN
200 PM EDT MON MAY 29 2017

NOTE: "FAIR" INDICATES FEW OR NO CLOUDS BELOW 12,000 FEET WITH NO
SIGNIFICANT WEATHER AND/OR OBSTRUCTIONS TO VISIBILITY.

* - STATION DOES NOT REPORT WEATHER SUCH AS PRECIPITATION OR FOG.

+ - STATION NOT QUALITY CONTROLLED BY THE NATIONAL WEATHER SERVICE.
    USE DATA WITH CAUTION...ESPECIALLY DEWPOINT AND RELATIVE
    HUMIDITY OBSERVATIONS.

INZ001>003-010>013-019-020-291900-
NORTHWEST INDIANA

CITY           SKY/WX    TMP DP  RH WIND       PRES   REMARKS
GARY /AIRPORT/ MOSUNNY   77  39  25 W16G32    29.85R
KNOX *+        MOSUNNY   79  36  21 W21G30    29.85S
LA PORTE +     CLOUDY    73  47  39 W15G23    29.86S
6HR MIN TEMP:  61; 6HR MAX TEMP:  76;

MICHIGAN CITY+ CLOUDY    73  46  38 W13G18    29.85R
MONTICELLO +   PTSUNNY   79  44  29 SW17G24   29.87S
6HR MIN TEMP:  61; 6HR MAX TEMP:  80;

RENSSELAER +   MOSUNNY   81  32  17 W20G28    29.87S
VALPARAISO     CLOUDY    79  49  34 W15G25    29.86R
6HR MIN TEMP:  63; 6HR MAX TEMP:  79;


$$

LMZ046-743>745-291900-
SOUTHERN LAKE MICHIGAN

STATION/POSITION TIME  TEMP    WIND        PRES    WAVE
                       AIR SEA DIR/SP/G            HT
                 (UTC) (F)     (DEG/KT/KT) (MB)    (FT)
BURNS HARBOR     1740   70     260/ 14/ 24 1010.8S
MICHIGAN CITY    1740   65     220/ 10/ 11   N/A
5NW MICH CITY    1800   62 56  250/  8/ 10   N/A     1

$$

INZ004-005-014>016-021>024-291900-
NORTH CENTRAL INDIANA

CITY           SKY/WX    TMP DP  RH WIND       PRES   REMARKS
ELKHART        SUNNY     75  45  33 W16G24    29.84R
GOSHEN         MOSUNNY   76  43  30 W23G35    29.85R
6HR MIN TEMP:  60; 6HR MAX TEMP:  77;

LOGANSPORT +   MOSUNNY   79  46  31 SW18      29.88F
PERU/GRISSOM   SUNNY     78  51  38 W16       29.87F
6HR MIN TEMP:  63; 6HR MAX TEMP:  78;

ROCHESTER +    SUNNY     81  43  26 SW17G29   29.87F
SOUTH BEND     PTSUNNY   74  46  36 W23G29    29.84S
6HR MIN TEMP:  60; 6HR MAX TEMP:  77;

WARSAW +       MOSUNNY   77  46  33 W16G25    29.86F

$$

INZ006>009-017-018-025>027-291900-
NORTHEAST INDIANA

CITY           SKY/WX    TMP DP  RH WIND       PRES   REMARKS
ANGOLA *+      SUNNY     77  48  36 W15       29.84S
AUBURN +       SUNNY     77  46  33 SW7G18    29.87S
FORT WAYNE     MOSUNNY   78  55  44 W16       29.88S
6HR MIN TEMP:  60; 6HR MAX TEMP:  78;

HUNTINGTON +   SUNNY     76  50  39 SW10G21   29.88F
KENDALLVILLE + MOSUNNY   79  47  32 W17G26    29.86S

$$

INZ028-029-035-036-043>045-051>053-291900-
WEST CENTRAL INDIANA

CITY           SKY/WX    TMP DP  RH WIND       PRES   REMARKS
CRAWFORDSVL +  SUNNY    -15 -30  48 W13G18    29.91S WCI -37
6HR MIN TEMP: -21; 6HR MAX TEMP: -13; 6HR PCP:  0.01;

GREENCASTLE +  SUNNY     79  52  38 SW6       29.93S
LAFAYETTE      SUNNY     78  50  37 W12       29.88F
6HR MIN TEMP:  59; 6HR MAX TEMP:  78;

TERRE HAUTE    SUNNY     80  53  39 SW12      29.92S
6HR MIN TEMP:  64; 6HR MAX TEMP:  81;


$$

INZ030>032-037>040-046>048-054>057-064-065-291900-
CENTRAL INDIANA

CITY           SKY/WX    TMP DP  RH WIND       PRES   REMARKS
CP ATTERBURY + MOSUNNY   79  55  44 W9        29.93F
COLUMBUS       MOSUNNY   79  50  36 SW18G28   29.94S
FISHERS *+     SUNNY     79  55  44 W13G18    29.91F
FRANKFORT +    CLOUDY    81  55  41 W17       29.92S
6HR MIN TEMP:  65; 6HR MAX TEMP:  81;

GREENWOOD *+   MOSUNNY   79  55  44 SW12G20   29.93S
INDIANAPOLIS   MOSUNNY   79  53  40 SW15      29.91F
6HR MIN TEMP:  61; 6HR MAX TEMP:  79;

-EAGLE CREEK   SUNNY     79  47  32 W10G18    29.91S
6HR MIN TEMP:  62; 6HR MAX TEMP:  79;

KOKOMO +       SUNNY     78  53  41 W16G22    29.90F
6HR MIN TEMP:  64; 6HR MAX TEMP:  78;

MARION +       SUNNY     77  50  38 W17       29.91S
MT COMFORT *+    N/A    N/A N/A N/A MISG        N/A
SHELBYVILLE    MOSUNNY   80  54  40 SW15      29.91F
6HR MIN TEMP:  63; 6HR MAX TEMP:  81;

ZIONSVILLE +   SUNNY     77  51  40 W16G24    29.92S
6HR MIN TEMP:  62; 6HR MAX TEMP:  77;


$$

INZ033-034-041-042-049-050-058-059-291900-
EAST CENTRAL INDIANA

CITY           SKY/WX    TMP DP  RH WIND       PRES   REMARKS
MUNCIE         SUNNY     80  47  31 W12G23    29.90S
6HR MIN TEMP:  63; 6HR MAX TEMP:  80;

RICHMOND +     PTSUNNY   75  52  43 W16G28    29.94S

$$

INZ060-061-067>069-081>083-085>088-291900-
SOUTHWEST INDIANA

CITY           SKY/WX    TMP DP  RH WIND       PRES   REMARKS
EVANSVILLE     MOSUNNY   84  54  35 SW16      29.97S
6HR MIN TEMP:  66; 6HR MAX TEMP:  85;

HUNTINGBURG *+ MOSUNNY   80  57  45 SW13      29.97S
6HR MIN TEMP:  65; 6HR MAX TEMP:  80;

WASHINGTON +   SUNNY     82  49  32 SW10G17   29.94F
6HR MIN TEMP:  65; 6HR MAX TEMP:  82;


$$

INZ062-063-066-070>080-084-089>092-291900-
SOUTH CENTRAL AND SOUTHEAST INDIANA

CITY           SKY/WX    TMP DP  RH WIND       PRES   REMARKS
BEDFORD +      MOSUNNY   81  50  34 S12G17    29.94F
BLOOMINGTON    MOSUNNY   80  52  37 SW17      29.94F
6HR MIN TEMP:  63; 6HR MAX TEMP:  82;

MADISON *+     MOSUNNY   81  46  30 W12G21    29.98S
NORTH VERNON + MOSUNNY   77  55  47 SW15      29.95F
SEYMOUR +      SUNNY     82  55  39 SW12      29.94F

$$





USA.gov is the U.S. government's official web portal to all federal, state and local government web resources and services.